Volver al catálogo

STARLINK-34139

ActivoComunicacionesVLEO
NORAD 63975·PAYLOAD·🇺🇸 United States

Lanzado May 13, 2025 desde Cape Canaveral Space Force Station

Loading…

Próximos Pases (próximas 24 horas)

TLE

ActualizadoSource: CelesTrak SupGP

Época: Sep 14, 2026, 21:04 UTC

1 63975C 25099Z   26257.87826389  .00002424  00000+0  87803-4 0  2576
2 63975  43.0022 184.4405 0001310 259.3821 285.4136 15.27576877    19

Sigue STARLINK-34139 en tiempo real con AllMySat

Download on the App Store